Simultaneous Nadir Overpasses (SNOs) Predictions

Prediction of SNOs between NOAA-19 and TERRA Satellite Orbit:

Table of predicted SNOs for the next 14.0 days since TLE Epoch: 3/1/2015
Index Date (NOAA-19) Time (NOAA-19) Lat,Lon (NOAA-19) SZA (NOAA-19 ) Date (TERRA) Time (TERRA) Lat,Lon (TERRA) SZA (TERRA ) Distance(km) Time Diff (sec)
1 03/02/2015 09:17:48 72.01, 42.83 79.18 03/02/2015 09:18:58 71.93, 43.91 79.09 38.59 70
2 03/02/2015 10:08:36 -71.56,-149.03 101.30 03/02/2015 10:08:33 -71.54,-149.11 101.32 3.42 3
3 03/04/2015 14:52:07 -71.62, 140.00 102.07 03/04/2015 14:52:45 -71.63, 139.99 102.07 0.89 38
4 03/04/2015 15:43:10 71.50, -52.55 77.80 03/04/2015 15:42:12 71.53, -52.54 77.82 3.06 58
5 03/06/2015 19:35:43 -71.95, 68.53 102.59 03/06/2015 19:36:55 -71.81, 69.23 102.74 29.13 72
6 03/06/2015 20:26:39 71.56,-123.48 77.00 03/06/2015 20:26:24 71.54,-123.57 76.98 3.59 15
7 03/09/2015 01:10:09 71.62, 165.56 76.21 03/09/2015 01:10:35 71.64, 165.53 76.22 2.01 26
8 03/09/2015 02:01:06 -71.53, -27.02 103.90 03/09/2015 02:00:05 -71.52, -27.02 103.91 1.22 61
9 03/11/2015 05:53:39 71.69, 94.59 75.42 03/11/2015 05:54:46 71.70, 94.60 75.43 1.54 67
10 03/11/2015 06:44:36 -71.57, -97.93 104.72 03/11/2015 06:44:16 -71.59, -97.95 104.70 2.27 20
11 03/13/2015 11:28:06 -71.62,-168.86 105.53 03/13/2015 11:28:27 -71.64,-168.92 105.52 2.89 21




NCC Satellite Simultaneous Nadir Overpasses (SNOs) Prediction Service
